contact:dominique.lefevre@mio.osupytheas.fr, maurice.libes@osupytheas.fr, didier.mallarino@osupytheas.fr
Project:EMSO http://www.emso-fr.org/EMSO-France
Depth: 2436.0 m
Title:EMSO Ligure Ouest : Data MII capteur CSTAR
DateTime,Latitude,Longitude,Instrument_Serial,Reference_Counts,Signal_Counts,Corrected_Signal_raw_counts,Calculated_Beam_c_inverse_meters,Internal_thermistor_counts
DateTime,Latitude,Longitude,Instrument_Serial,Reference_Counts,Signal_Counts,Corrected_Signal_raw_counts,Calculated_Beam_c_inverse_meters,Internal_thermistor_counts
2019-06-30T00:01:41,42.805,6.029,CST-1368DR,8844,12378,15504,0.029,551
2019-06-30T00:04:42,42.805,6.029,CST-1368DR,8844,12375,15501,0.030,551
2019-06-30T00:07:43,42.805,6.029,CST-1368DR,8844,12376,15503,0.029,551
2019-06-30T00:10:45,42.805,6.029,CST-1368DR,8844,12375,15501,0.030,551
2019-06-30T00:13:46,42.805,6.029,CST-1368DR,8844,12376,15503,0.029,551
2019-06-30T00:16:48,42.805,6.029,CST-1368DR,8844,12376,15502,0.029,551
2019-06-30T00:19:49,42.805,6.029,CST-1368DR,8844,12376,15503,0.029,551
2019-06-30T00:22:51,42.805,6.029,CST-1368DR,8844,12376,15502,0.029,551
2019-06-30T00:25:52,42.805,6.029,CST-1368DR,8844,12377,15504,0.029,551
2019-06-30T00:28:53,42.805,6.029,CST-1368DR,8844,12376,15502,0.029,551
2019-06-30T00:31:55,42.805,6.029,CST-1368DR,8844,12376,15502,0.029,551
2019-06-30T00:34:56,42.805,6.029,CST-1368DR,8844,12376,15503,0.029,551
2019-06-30T00:37:58,42.805,6.029,CST-1368DR,8844,12377,15504,0.029,551
2019-06-30T00:40:59,42.805,6.029,CST-1368DR,8844,12375,15501,0.030,551
2019-06-30T00:44:00,42.805,6.029,CST-1368DR,8844,12377,15504,0.029,551
2019-06-30T00:47:02,42.805,6.029,CST-1368DR,8844,12375,15501,0.030,551
2019-06-30T00:50:03,42.805,6.029,CST-1368DR,8844,12377,15504,0.029,551
2019-06-30T00:53:05,42.805,6.029,CST-1368DR,8844,12374,15499,0.030,551
2019-06-30T00:56:06,42.805,6.029,CST-1368DR,8844,12375,15501,0.030,551
2019-06-30T00:59:07,42.805,6.029,CST-1368DR,8844,12374,15500,0.030,551
2019-06-30T01:02:09,42.805,6.029,CST-1368DR,8844,12376,15502,0.029,551
2019-06-30T01:05:10,42.805,6.029,CST-1368DR,8844,12376,15502,0.029,551
2019-06-30T01:08:12,42.805,6.029,CST-1368DR,8843,12375,15502,0.029,551
2019-06-30T01:11:13,42.805,6.029,CST-1368DR,8843,12377,15505,0.029,550
2019-06-30T01:14:14,42.805,6.029,CST-1368DR,8843,12375,15503,0.029,551
2019-06-30T01:17:16,42.805,6.029,CST-1368DR,8843,12376,15504,0.029,551
2019-06-30T01:20:17,42.805,6.029,CST-1368DR,8843,12374,15501,0.030,551
2019-06-30T01:23:19,42.805,6.029,CST-1368DR,8843,12377,15505,0.029,551
2019-06-30T01:26:20,42.805,6.029,CST-1368DR,8843,12374,15502,0.029,550
2019-06-30T01:29:22,42.805,6.029,CST-1368DR,8843,12374,15501,0.030,551
2019-06-30T01:32:23,42.805,6.029,CST-1368DR,8843,12375,15502,0.029,550
2019-06-30T01:35:24,42.805,6.029,CST-1368DR,8843,12376,15504,0.029,551
2019-06-30T01:38:26,42.805,6.029,CST-1368DR,8843,12376,15504,0.029,551
2019-06-30T01:41:27,42.805,6.029,CST-1368DR,8843,12374,15502,0.029,551
2019-06-30T01:44:29,42.805,6.029,CST-1368DR,8843,12375,15503,0.029,551
2019-06-30T01:47:30,42.805,6.029,CST-1368DR,8843,12372,15499,0.030,550
2019-06-30T01:50:31,42.805,6.029,CST-1368DR,8843,12376,15504,0.029,551
2019-06-30T01:53:33,42.805,6.029,CST-1368DR,8843,12375,15502,0.029,550
2019-06-30T01:56:34,42.805,6.029,CST-1368DR,8843,12373,15500,0.030,551
2019-06-30T01:59:36,42.805,6.029,CST-1368DR,8843,12374,15501,0.030,551
2019-06-30T02:02:37,42.805,6.029,CST-1368DR,8843,12373,15500,0.030,551
2019-06-30T02:05:38,42.805,6.029,CST-1368DR,8843,12375,15503,0.029,551
2019-06-30T02:08:40,42.805,6.029,CST-1368DR,8843,12376,15504,0.029,550
2019-06-30T02:11:41,42.805,6.029,CST-1368DR,8843,12374,15501,0.030,551
2019-06-30T02:14:43,42.805,6.029,CST-1368DR,8843,12373,15500,0.030,550
2019-06-30T02:17:44,42.805,6.029,CST-1368DR,8843,12374,15502,0.029,551
2019-06-30T02:20:45,42.805,6.029,CST-1368DR,8843,12373,15500,0.030,551
2019-06-30T02:23:47,42.805,6.029,CST-1368DR,8843,12374,15501,0.030,551
2019-06-30T02:26:48,42.805,6.029,CST-1368DR,8843,12375,15503,0.029,551
2019-06-30T02:29:50,42.805,6.029,CST-1368DR,8843,12371,15498,0.030,551
2019-06-30T02:32:51,42.805,6.029,CST-1368DR,8843,12374,15501,0.030,551
2019-06-30T02:35:53,42.805,6.029,CST-1368DR,8843,12374,15502,0.029,551
2019-06-30T02:38:54,42.805,6.029,CST-1368DR,8843,12375,15502,0.029,551
2019-06-30T02:41:55,42.805,6.029,CST-1368DR,8842,12374,15503,0.029,550
2019-06-30T02:44:57,42.805,6.029,CST-1368DR,8843,12375,15503,0.029,550
2019-06-30T02:47:58,42.805,6.029,CST-1368DR,8843,12372,15499,0.030,551
2019-06-30T02:51:00,42.805,6.029,CST-1368DR,8843,12376,15504,0.029,551
2019-06-30T02:54:01,42.805,6.029,CST-1368DR,8843,12375,15503,0.029,551
2019-06-30T02:57:02,42.805,6.029,CST-1368DR,8842,12373,15502,0.029,551
2019-06-30T03:00:04,42.805,6.029,CST-1368DR,8842,12373,15501,0.030,551
2019-06-30T03:03:05,42.805,6.029,CST-1368DR,8842,12374,15503,0.029,551
2019-06-30T03:06:07,42.805,6.029,CST-1368DR,8842,12374,15503,0.029,551
2019-06-30T03:09:08,42.805,6.029,CST-1368DR,8842,12375,15505,0.029,551
2019-06-30T03:12:09,42.805,6.029,CST-1368DR,8842,12374,15503,0.029,551
2019-06-30T03:15:11,42.805,6.029,CST-1368DR,8842,12375,15505,0.029,550
2019-06-30T03:18:12,42.805,6.029,CST-1368DR,8842,12374,15503,0.029,551
2019-06-30T03:21:14,42.805,6.029,CST-1368DR,8842,12374,15504,0.029,550
2019-06-30T04:00:05,42.805,6.029,CST-1368DR,8832,12366,15509,0.028,556
2019-06-30T04:00:11,42.805,6.029,CST-1368DR,8805,12326,15502,0.029,556
2019-06-30T04:03:08,42.805,6.029,CST-1368DR,8836,12371,15509,0.028,552
2019-06-30T04:06:09,42.805,6.029,CST-1368DR,8839,12371,15504,0.029,551
2019-06-30T04:09:11,42.805,6.029,CST-1368DR,8841,12373,15503,0.029,551
2019-06-30T04:12:12,42.805,6.029,CST-1368DR,8841,12374,15505,0.029,551
2019-06-30T04:15:14,42.805,6.029,CST-1368DR,8841,12370,15500,0.030,551
2019-06-30T04:18:15,42.805,6.029,CST-1368DR,8842,12373,15502,0.029,551
2019-06-30T04:21:16,42.805,6.029,CST-1368DR,8842,12376,15506,0.028,551
2019-06-30T04:24:18,42.805,6.029,CST-1368DR,8842,12375,15505,0.029,550
2019-06-30T04:27:19,42.805,6.029,CST-1368DR,8842,12373,15502,0.029,551
2019-06-30T04:30:21,42.805,6.029,CST-1368DR,8842,12373,15502,0.029,550
2019-06-30T04:33:22,42.805,6.029,CST-1368DR,8842,12371,15499,0.030,551
2019-06-30T04:36:23,42.805,6.029,CST-1368DR,8842,12374,15503,0.029,551
2019-06-30T04:39:25,42.805,6.029,CST-1368DR,8842,12375,15505,0.029,550
2019-06-30T04:42:26,42.805,6.029,CST-1368DR,8842,12373,15501,0.030,551
2019-06-30T04:45:28,42.805,6.029,CST-1368DR,8842,12375,15504,0.029,551
2019-06-30T04:48:29,42.805,6.029,CST-1368DR,8842,12366,15493,0.032,551
2019-06-30T04:51:30,42.805,6.029,CST-1368DR,8842,12373,15502,0.029,550
2019-06-30T04:54:32,42.805,6.029,CST-1368DR,8842,12369,15497,0.031,551
2019-06-30T04:57:33,42.805,6.029,CST-1368DR,8841,12375,15507,0.028,551
2019-06-30T05:00:35,42.805,6.029,CST-1368DR,8841,12375,15506,0.028,551
2019-06-30T05:03:36,42.805,6.029,CST-1368DR,8841,12375,15506,0.028,551
2019-06-30T05:06:38,42.805,6.029,CST-1368DR,8841,12374,15505,0.029,551
2019-06-30T05:09:39,42.805,6.029,CST-1368DR,8841,12373,15504,0.029,551
2019-06-30T05:12:40,42.805,6.029,CST-1368DR,8841,12374,15505,0.029,551
2019-06-30T05:15:42,42.805,6.029,CST-1368DR,8841,12374,15505,0.029,551
2019-06-30T05:18:43,42.805,6.029,CST-1368DR,8841,12373,15504,0.029,551
2019-06-30T05:21:45,42.805,6.029,CST-1368DR,8841,12374,15505,0.029,551
2019-06-30T05:24:46,42.805,6.029,CST-1368DR,8841,12373,15504,0.029,551
2019-06-30T05:27:47,42.805,6.029,CST-1368DR,8841,12373,15503,0.029,550
2019-06-30T05:30:49,42.805,6.029,CST-1368DR,8841,12373,15503,0.029,550
2019-06-30T17:05:06,42.805,6.029,CST-1368DR,8851,12388,15507,0.028,551
2019-06-30T17:08:08,42.805,6.029,CST-1368DR,8852,12389,15505,0.029,551
2019-06-30T17:11:09,42.805,6.029,CST-1368DR,8852,12389,15506,0.028,551
2019-06-30T17:14:10,42.805,6.029,CST-1368DR,8852,12388,15505,0.029,551
2019-06-30T17:17:12,42.805,6.029,CST-1368DR,8852,12388,15504,0.029,551
2019-06-30T17:20:13,42.805,6.029,CST-1368DR,8852,12389,15505,0.029,551
2019-06-30T17:23:15,42.805,6.029,CST-1368DR,8852,12388,15505,0.029,551
2019-06-30T17:26:16,42.805,6.029,CST-1368DR,8851,12388,15506,0.028,551
2019-06-30T17:29:17,42.805,6.029,CST-1368DR,8851,12387,15505,0.029,551
2019-06-30T17:32:19,42.805,6.029,CST-1368DR,8851,12385,15502,0.029,551
2019-06-30T17:35:20,42.805,6.029,CST-1368DR,8850,12387,15507,0.028,551
2019-06-30T17:38:22,42.805,6.029,CST-1368DR,8850,12386,15505,0.029,551
2019-06-30T17:41:23,42.805,6.029,CST-1368DR,8850,12384,15503,0.029,551
2019-06-30T17:44:25,42.805,6.029,CST-1368DR,8849,12385,15506,0.028,551
2019-06-30T17:47:26,42.805,6.029,CST-1368DR,8849,12384,15505,0.029,551
2019-06-30T17:50:27,42.805,6.029,CST-1368DR,8849,12385,15505,0.029,551
2019-06-30T17:53:29,42.805,6.029,CST-1368DR,8849,12382,15502,0.029,551
2019-06-30T17:56:30,42.805,6.029,CST-1368DR,8849,12384,15505,0.029,551
2019-06-30T17:59:32,42.805,6.029,CST-1368DR,8849,12384,15504,0.029,551
2019-06-30T18:02:33,42.805,6.029,CST-1368DR,8848,12382,15504,0.029,551
2019-06-30T18:05:34,42.805,6.029,CST-1368DR,8848,12383,15504,0.029,551
2019-06-30T18:08:36,42.805,6.029,CST-1368DR,8848,12382,15504,0.029,551
2019-06-30T18:11:37,42.805,6.029,CST-1368DR,8848,12379,15500,0.030,551
2019-06-30T18:14:39,42.805,6.029,CST-1368DR,8848,12381,15502,0.029,551
2019-06-30T18:17:40,42.805,6.029,CST-1368DR,8847,12383,15506,0.028,550
